FW5886 Weather Reports


Display with metric or nautical units.
time (UTC)temp
F
wind
direction
speed
MPH
gust
MPH
rain 1hr
in
rain 24hr
in
rain mn
in
humidity
%
barometer
mb
20191020135335 60 243 0.0 0.0 0.00 0.00 0.00 78 1010.3
20191020134342 58 243 0.0 0.0 0.00 0.00 0.00 81 1010.3
20191020133337 56 243 0.0 0.0 0.00 0.00 0.00 83 1010.2
20191020132340 55 243 0.0 0.0 0.00 0.00 0.00 85 1010.3
20191020131324 54 243 0.0 0.0 0.00 0.00 0.00 86 1010.2
20191020130324 53 243 0.0 0.0 0.00 0.00 0.00 87 1010.2
20191020125400 53 243 0.0 0.0 0.00 0.00 0.00 86 1010.2
20191020124336 53 243 0.0 0.0 0.00 0.00 0.00 86 1010.3
20191020123336 53 243 0.0 0.0 0.00 0.00 0.00 86 1010.3
20191020121337 53 243 0.0 0.0 0.00 0.00 0.00 85 1010.0
20191020115440 54 243 0.0 0.0 0.00 0.00 0.00 85 1010.1
20191020110355 55 243 0.0 0.0 0.00 0.00 0.00 83 1010.2
20191020105328 56 243 0.0 0.0 0.00 0.00 0.00 83 1010.1
20191020102354 56 243 2.0 0.0 0.00 0.00 0.00 82 1009.9
20191020100323 56 242 2.0 0.0 0.00 0.00 0.00 82 1009.7
20191020095325 56 242 2.0 0.0 0.00 0.00 0.00 81 1009.7
20191020094337 56 242 2.0 0.0 0.00 0.00 0.00 81 1009.6
20191020093339 56 242 2.0 0.0 0.00 0.00 0.00 81 1009.5
20191020092336 57 242 2.0 0.0 0.00 0.00 0.00 80 1009.6
20191020091321 57 242 2.0 0.0 0.00 0.00 0.00 80 1009.6
20191020085321 57 242 3.0 0.0 0.00 0.00 0.00 79 1009.5
20191020084336 58 236 2.0 0.0 0.00 0.00 0.00 78 1009.4
20191020083336 58 330 2.0 0.0 0.00 0.00 0.00 77 1009.4
20191020082346 59 330 0.0 0.0 0.00 0.00 0.00 76 1009.6
20191020081332 59 332 0.0 0.0 0.00 0.00 0.00 75 1009.5
20191020080333 60 332 0.0 0.0 0.00 0.00 0.00 73 1009.4
20191020075341 61 332 0.0 0.0 0.00 0.00 0.00 71 1009.4
20191020074337 62 332 1.0 0.0 0.00 0.00 0.00 70 1009.4
20191020073333 62 332 2.0 0.0 0.00 0.00 0.00 68 1009.5
20191020072345 63 332 2.0 0.0 0.00 0.00 0.00 67 1009.4
20191020071328 63 332 3.0 0.0 0.00 0.00 0.00 66 1009.4
20191020070330 64 319 4.0 0.0 0.00 0.00 0.00 66 1009.5
20191020065344 64 320 4.0 0.0 0.00 0.00 0.00 65 1009.5
20191020064321 64 312 4.0 0.0 0.00 0.00 0.00 64 1009.4
20191020063354 65 301 4.0 0.0 0.00 0.00 0.00 63 1009.6
20191020062330 65 302 3.0 0.0 0.00 0.00 0.00 62 1009.7
20191020061330 65 314 5.0 0.0 0.00 0.00 0.00 61 1009.7
20191020060339 65 305 5.0 0.0 0.00 0.00 0.00 62 1009.6
20191020054315 66 305 4.0 0.0 0.00 0.00 0.00 62 1009.9
20191020053331 66 302 4.0 0.0 0.00 0.00 0.00 61 1009.9
20191020052320 66 310 4.0 0.0 0.00 0.00 0.00 61 1009.8
20191020051314 66 300 4.0 0.0 0.00 0.00 0.00 61 1009.8
20191020045325 66 298 3.0 0.0 0.00 0.00 0.02 61 1009.9
20191020044325 66 298 3.0 0.0 0.00 0.00 0.02 61 1009.9
20191020042338 67 304 3.0 0.0 0.00 0.00 0.02 61 1010.0
20191020041329 67 304 2.0 0.0 0.00 0.00 0.02 59 1009.9
20191020040343 68 304 2.0 0.0 0.00 0.00 0.02 58 1009.9
20191020035323 69 304 3.0 0.0 0.00 0.00 0.02 57 1009.8
20191020034324 69 305 3.0 0.0 0.00 0.00 0.02 56 1009.8
20191020033341 69 305 3.0 0.0 0.00 0.00 0.02 55 1009.7
20191020032323 69 307 3.0 0.0 0.00 0.00 0.02 55 1009.6
20191020031324 70 317 3.0 0.0 0.00 0.00 0.02 55 1009.6
20191020030320 70 329 3.0 0.0 0.00 0.00 0.02 55 1009.4
20191020025315 70 338 2.0 0.0 0.00 0.00 0.02 54 1009.3
20191020024317 70 338 2.0 0.0 0.00 0.00 0.02 54 1009.2
20191020023320 70 340 2.0 0.0 0.00 0.00 0.02 54 1009.2
20191020022334 70 341 2.0 0.0 0.00 0.00 0.02 54 1009.1
20191020021317 71 350 2.0 0.0 0.00 0.00 0.02 53 1009.0
20191020020318 71 290 2.0 0.0 0.00 0.00 0.02 51 1008.9
20191020015321 72 290 2.0 0.0 0.00 0.00 0.02 50 1008.8
20191020014324 72 290 2.0 0.0 0.00 0.00 0.02 49 1008.8
20191020013341 72 279 3.0 0.0 0.00 0.00 0.02 49 1008.8
20191020012323 72 294 3.0 0.0 0.00 0.00 0.02 48 1008.8
20191020011324 73 274 3.0 0.0 0.00 0.00 0.02 49 1008.6
20191020010339 73 258 2.0 0.0 0.00 0.00 0.02 49 1008.4
20191020005323 74 258 2.0 0.0 0.00 0.00 0.02 47 1008.3
20191020004324 74 258 2.0 0.0 0.00 0.00 0.02 46 1008.2
20191020003325 75 257 3.0 0.0 0.00 0.00 0.02 45 1008.0
20191020002339 76 248 3.0 0.0 0.00 0.00 0.02 44 1007.9
20191020001325 76 259 4.0 0.0 0.00 0.00 0.02 43 1007.8
20191020000310 77 254 3.0 0.0 0.00 0.00 0.02 42 1007.7
20191019235318 77 265 3.0 0.0 0.00 0.00 0.02 42 1007.7
20191019234318 78 279 5.0 0.0 0.00 0.00 0.02 40 1007.7
20191019233338 79 293 6.0 0.0 0.00 0.00 0.02 40 1007.5
20191019231318 79 237 6.0 0.0 0.00 0.00 0.02 39 1007.4
20191019225325 80 294 7.0 0.0 0.00 0.00 0.02 38 1007.1
20191019224357 81 284 7.0 0.0 0.00 0.00 0.02 39 1007.0
20191019223316 81 319 7.0 0.0 0.00 0.00 0.02 39 1006.9
20191019222344 81 274 6.0 0.0 0.00 0.00 0.02 39 1006.8
20191019221319 81 274 6.0 0.0 0.00 0.00 0.02 40 1006.8
20191019220323 82 262 5.0 0.0 0.00 0.00 0.02 39 1006.8
20191019215322 82 261 6.0 0.0 0.00 0.00 0.02 38 1006.8
20191019214335 83 279 6.0 0.0 0.00 0.00 0.02 37 1006.9
20191019213335 83 238 5.0 0.0 0.00 0.00 0.02 37 1006.9
20191019212325 83 232 6.0 0.0 0.00 0.00 0.02 37 1006.9
20191019211412 83 227 7.0 0.0 0.00 0.00 0.02 34 1007.0
20191019210330 82 290 7.0 0.0 0.00 0.00 0.02 35 1006.9
20191019205316 82 248 7.0 0.0 0.00 0.00 0.02 34 1006.9
20191019204317 83 255 5.0 0.0 0.00 0.00 0.02 36 1006.9
20191019203320 82 263 8.0 0.0 0.00 0.00 0.02 34 1006.8
20191019202324 82 245 7.0 0.0 0.00 0.00 0.02 35 1006.8
20191019201323 82 305 8.0 0.0 0.00 0.00 0.02 34 1006.7
20191019200316 82 245 7.0 0.0 0.00 0.00 0.02 36 1006.6
20191019195332 82 240 5.0 0.0 0.00 0.00 0.02 35 1006.7
20191019194313 82 299 7.0 0.0 0.00 0.00 0.02 34 1006.7
20191019192347 83 204 5.0 0.0 0.00 0.00 0.02 35 1006.8
20191019191329 82 274 7.0 0.0 0.00 0.00 0.02 33 1006.9
20191019190333 82 256 6.0 0.0 0.00 0.00 0.02 33 1006.9
20191019185339 82 217 5.0 0.0 0.00 0.00 0.02 34 1007.0
20191019184346 82 250 6.0 0.0 0.00 0.00 0.02 35 1007.1